Lid_Strength_Index
2 2 2 3 3 3 4 3 3 2 3 3 4 4 4 4 4 4 4 4 4 4 4 4 4 4 9 15 15 10 6 8 10 11 12 13 14 14 16 16 16 16 16 16 15 15 16
3 3 3 2 3 3 3 3 3 3 3 4 4 4 4 4 4 4 4 4 4 4 4 4 4 5 12 16 11 11 11 11 12 11 13 13 14 14 16 17 17 16 16 16 15 15 15
4 4 4 4 3 3 3 4 4 5 5 4 4 4 4 4 4 4 4 4 4 4 4 4 4 11 13 15 12 12 12 12 11 11 13 12 13 13 15 16 15 15 17 16 16 15 16
3 4 4 4 4 3 3 3 4 4 4 5 5 5 4 4 4 4 4 4 4 5 4 4 5 12 16 11 11 12 12 12 11 11 11 12 12 14 15 15 15 16 16 17 16 15 15
3 3 5 4 4 4 3 3 3 4 4 5 5 5 5 4 4 4 4 4 4 5 4 5 11 14 16 10 13 12 12 12 12 11 11 10 12 15 14 16 17 17 18 17 16 15 15
3 3 4 4 4 5 4 4 4 4 5 5 5 5 5 4 4 4 3 4 5 6 8 9 11 15 15 15 13 12 12 12 13 12 13 12 15 16 17 16 18 18 18 17 17 17 16
3 3 3 3 4 4 5 4 4 4 4 4 5 6 5 5 4 4 6 10 14 14 13 16 16 16 15 13 12 13 12 13 13 14 17 15 16 17 17 16 16 17 17 18 19 17 17
3 3 3 3 3 3 4 5 4 4 4 4 5 5 4 5 4 4 9 14 15 14 17 14 14 14 14 13 15 14 12 15 15 17 16 16 18 16 16 17 17 17 18 19 18 17 18
3 2 2 3 4 3 3 4 4 4 3 4 4 4 4 4 3 7 10 11 10 12 16 15 14 14 14 13 16 15 14 15 17 17 17 17 17 16 17 17 17 19 18 19 18 18 18
4 3 3 3 3 3 3 4 4 4 4 4 3 3 3 2 7 8 9 8 10 12 18 17 16 14 14 14 16 13 14 15 17 18 18 18 17 17 17 18 18 19 18 18 18 18 18
4 4 3 3 3 3 3 3 4 4 4 4 4 3 2 4 10 10 10 10 11 12 21 16 16 12 14 16 16 15 14 15 18 18 17 19 18 18 18 18 17 18 18 19 19 21 21
3 3 3 3 3 3 3 3 3 4 4 4 4 3 4 9 10 11 10 11 12 16 22 18 16 17 17 16 16 16 16 15 15 17 18 19 17 17 18 18 18 18 20 20 21 21 22
3 3 3 3 2 2 3 3 3 4 4 4 3 2 5 9 12 11 11 13 18 21 17 19 18 17 18 18 18 18 18 19 19 21 21 19 19 18 17 19 18 22 20 22 22 24 21
3 4 3 2 2 3 3 3 3 4 4 4 3 4 6 9 10 11 12 16 21 16 18 17 18 18 19 18 19 19 19 20 19 19 22 21 21 19 18 19 20 25 22 21 24 24 22
2 3 3 3 3 2 2 2 2 3 4 4 3 7 8 9 10 11 15 20 18 16 16 18 18 19 20 18 19 20 20 20 19 19 19 22 21 19 18 19 19 22 23 20 25 29 24
2 2 2 3 3 2 2 2 2 3 3 4 8 8 10 8 10 13 17 17 17 14 16 17 17 18 20 20 20 22 21 19 18 18 20 19 23 20 19 19 20 21 20 22 23 25 25
1 2 2 2 3 3 2 2 2 2 3 4 8 11 11 9 11 16 20 19 16 13 14 17 17 19 19 20 20 21 20 18 18 19 19 22 21 23 20 22 24 22 23 26 23 23 23
1 1 1 2 2 2 3 3 2 2 3 5 9 15 10 11 16 17 20 17 13 15 14 15 15 17 18 19 20 21 20 19 17 17 19 19 23 25 24 26 25 25 23 24 21 24 27
1 1 1 2 2 2 2 3 2 3 4 8 13 14 10 11 19 19 17 16 14 14 15 15 15 15 16 19 20 19 19 17 17 17 19 18 23 26 24 24 24 24 25 26 28 28 26
2 1 1 2 2 2 2 2 2 3 3 8 13 16 14 14 17 19 19 17 16 13 13 13 14 14 17 17 17 19 18 16 16 16 13 15 23 22 21 22 24 27 26 24 22 25 23
2 2 2 1 1 1 2 2 2 2 4 7 13 17 15 17 17 17 16 16 16 16 14 13 15 16 16 18 17 18 18 17 16 14 16 18 22 22 22 21 22 22 23 23 22 19 20
3 3 1 2 1 1 1 2 2 2 3 7 13 15 18 18 15 15 16 18 17 16 15 16 16 15 15 15 15 18 17 18 17 18 18 21 21 21 22 21 19 20 21 22 21 20 19
1 2 2 2 1 1 1 1 1 1 3 8 7 10 12 14 17 17 17 16 16 14 14 13 13 14 15 14 11 11 12 13 13 16 17 20 20 21 20 21 20 21 20 19 19 19 18
1 1 0 1 3 2 1 1 1 0 1 4 5 8 11 15 15 16 15 15 15 14 15 13 12 14 13 11 11 12 13 14 14 17 15 23 22 18 20 20 24 18 20 16 17 16 17
1 1 0 -0 1 3 3 2 1 0 0 2 4 7 11 13 12 14 14 14 14 13 13 13 12 11 9 12 15 16 17 16 16 15 17 15 17 19 20 21 19 17 18 19 18 17 14
1 1 1 0 0 1 2 3 3 1 -0 2 5 6 10 11 11 10 12 13 14 15 14 13 10 8 10 12 15 18 20 21 21 18 15 16 15 17 19 21 23 17 18 22 18 19 14
1 1 1 1 1 1 1 1 1 2 2 3 5 5 9 11 10 8 11 12 11 11 14 14 12 11 10 14 16 17 18 17 21 21 19 18 18 18 18 19 19 18 22 21 21 18 17
1 1 1 1 1 1 1 1 0 1 1 3 6 5 8 10 9 8 7 10 10 10 12 11 12 12 13 15 16 16 16 18 19 20 19 18 17 18 17 18 20 19 18 17 18 22 23
-0 -0 1 2 1 1 1 1 1 1 1 2 5 4 4 9 9 7 7 6 6 7 9 10 11 11 12 13 13 13 15 15 16 19 21 17 16 17 16 16 15 19 21 22 24 19 20